Location: Crescent
(42.8242°N, 73.7329°W)
Time: 08:05:06
(UTC+00:00)

Vanguard 1 - Pass Details

Date: 16 February 2026
Orbit: 653 x 3818 km, 34.2° (Epoch: 12 March)

Event Time Altitude Azimuth Distance (km) Brightness Sun altitude
Rises 04:07:43 0° 282° (WNW) 7,521 14.9 -56.8°
Reaches altitude 10° 04:14:05 10° 271° (W) 6,759 14.4 -57.3°
Enters shadow 04:26:29 24° 239° (WSW) 5,778 13.7 -58.2°
Maximum altitude 04:30:04 25° 227° (SW) 5,667 - -58.4°
Drops below altitude 10° 04:45:01 10° 181° (S) 6,217 - -59.1°
Sets 04:50:41 0° 169° (S) 6,815 - -59.2°
